7QMTA FWKI-FWLP

Flight info

Callsign 7QMTA
Flight time 0h 33m
Altitude 9500
Route DCT
Aircraft C210/L-SDFG/C

Departure

Time 2026-04-22 21:16
Airport Kamuzu International Airport (FWKI)

Arrival

Time 2026-04-22 21:50
Airport Lifupa Airport (FWLP)
Time Latitude Longitude Altitude Speed Heading
2026-04-22 20:56 -13.78774 33.78535 4025 ft 0 kts 299°
2026-04-22 20:59 -13.78749 33.78506 4025 ft 10 kts 301°
2026-04-22 21:01 -13.78749 33.78505 4025 ft 10 kts 301°
2026-04-22 21:01 -13.78714 33.78403 4025 ft 20 kts 268°
2026-04-22 21:01 -13.78806 33.78256 4025 ft 26 kts 255°
2026-04-22 21:02 -13.78728 33.78133 4025 ft 20 kts 315°
2026-04-22 21:02 -13.78636 33.78020 4026 ft 21 kts 307°
2026-04-22 21:02 -13.78549 33.77912 4026 ft 18 kts 309°
2026-04-22 21:02 -13.78471 33.77814 4026 ft 17 kts 309°
2026-04-22 21:03 -13.78390 33.77734 4026 ft 16 kts 353°
2026-04-22 21:03 -13.78310 33.77788 4026 ft 13 kts 39°
2026-04-22 21:03 -13.78298 33.77798 4026 ft 12 kts 39°
2026-04-22 21:04 -13.78235 33.77851 4026 ft 11 kts 40°
2026-04-22 21:04 -13.78178 33.77898 4026 ft 10 kts 36°
2026-04-22 21:04 -13.78131 33.77942 4026 ft 6 kts 72°
2026-04-22 21:05 -13.78149 33.77966 4026 ft 7 kts 130°
2026-04-22 21:05 -13.78166 33.77985 4026 ft 0 kts 131°
2026-04-22 21:10 -13.78175 33.77969 4026 ft 10 kts 269°
2026-04-22 21:10 -13.78205 33.77876 4026 ft 17 kts 212°
2026-04-22 21:11 -13.78316 33.77782 4026 ft 23 kts 221°
2026-04-22 21:11 -13.78391 33.77670 4025 ft 13 kts 320°
2026-04-22 21:11 -13.78315 33.77625 4025 ft 15 kts 322°
2026-04-22 21:11 -13.78248 33.77544 4025 ft 17 kts 310°
2026-04-22 21:12 -13.78157 33.77433 4025 ft 23 kts 311°
2026-04-22 21:12 -13.78045 33.77289 4025 ft 28 kts 315°
2026-04-22 21:12 -13.77909 33.77129 4025 ft 32 kts 311°
2026-04-22 21:12 -13.77822 33.76953 4026 ft 21 kts 247°
2026-04-22 21:13 -13.77851 33.76909 4026 ft 0 kts 219°
2026-04-22 21:14 -13.77875 33.76898 4027 ft 13 kts 190°
2026-04-22 21:15 -13.77913 33.76889 4027 ft 0 kts 194°
2026-04-22 21:15 -13.77915 33.76888 4027 ft 4 kts 199°
2026-04-22 21:15 -13.78029 33.76986 4025 ft 46 kts 130°
2026-04-22 21:16 -13.78323 33.77346 4043 ft 79 kts 129°
2026-04-22 21:16 -13.78705 33.77782 4274 ft 81 kts 127°
2026-04-22 21:16 -13.79036 33.78261 4553 ft 81 kts 120°
2026-04-22 21:16 -13.79413 33.78749 4723 ft 94 kts 115°
2026-04-22 21:17 -13.79426 33.79400 4955 ft 96 kts 68°
2026-04-22 21:17 -13.78850 33.79744 5182 ft 108 kts
2026-04-22 21:17 -13.78133 33.79411 5340 ft 126 kts 321°
2026-04-22 21:17 -13.77557 33.78718 5573 ft 127 kts 311°
2026-04-22 21:18 -13.77009 33.77998 5809 ft 129 kts 310°
2026-04-22 21:18 -13.76429 33.77281 6002 ft 131 kts 316°
2026-04-22 21:18 -13.75782 33.76602 6233 ft 133 kts 317°
2026-04-22 21:18 -13.75137 33.75922 6460 ft 134 kts 317°
2026-04-22 21:19 -13.74491 33.75236 6686 ft 133 kts 316°
2026-04-22 21:19 -13.73855 33.74546 6945 ft 131 kts 316°
2026-04-22 21:19 -13.73222 33.73856 7169 ft 133 kts 316°
2026-04-22 21:19 -13.72593 33.73163 7378 ft 136 kts 315°
2026-04-22 21:20 -13.71957 33.72447 7611 ft 134 kts 315°
2026-04-22 21:20 -13.71338 33.71722 7806 ft 137 kts 311°
2026-04-22 21:20 -13.70780 33.70920 8033 ft 137 kts 306°
2026-04-22 21:20 -13.70154 33.70224 8206 ft 132 kts 332°
2026-04-22 21:21 -13.69325 33.69823 8384 ft 133 kts 344°
2026-04-22 21:21 -13.68465 33.69498 8551 ft 136 kts 340°
2026-04-22 21:21 -13.67584 33.68977 8607 ft 149 kts 327°
2026-04-22 21:21 -13.66805 33.68242 8685 ft 155 kts 313°
2026-04-22 21:22 -13.66157 33.67344 8706 ft 159 kts 305°
2026-04-22 21:22 -13.65596 33.66374 8733 ft 159 kts 301°
2026-04-22 21:22 -13.64982 33.65362 8524 ft 170 kts 304°
2026-04-22 21:22 -13.64305 33.64385 8503 ft 167 kts 309°
2026-04-22 21:23 -13.63613 33.63447 8519 ft 163 kts 310°
2026-04-22 21:23 -13.62922 33.62533 8517 ft 162 kts 310°
2026-04-22 21:23 -13.62247 33.61638 8522 ft 162 kts 310°
2026-04-22 21:23 -13.61542 33.60703 8522 ft 162 kts 310°
2026-04-22 21:24 -13.60856 33.59791 8524 ft 162 kts 310°
2026-04-22 21:24 -13.60178 33.58888 8525 ft 161 kts 309°
2026-04-22 21:24 -13.59484 33.57966 8521 ft 161 kts 310°
2026-04-22 21:24 -13.58768 33.57097 8522 ft 158 kts 314°
2026-04-22 21:25 -13.58038 33.56256 8525 ft 158 kts 314°
2026-04-22 21:25 -13.57303 33.55408 8527 ft 159 kts 314°
2026-04-22 21:25 -13.56574 33.54567 8532 ft 160 kts 314°
2026-04-22 21:25 -13.55827 33.53706 8535 ft 161 kts 314°
2026-04-22 21:26 -13.55089 33.52853 8528 ft 159 kts 314°
2026-04-22 21:26 -13.54358 33.52007 8528 ft 159 kts 314°
2026-04-22 21:26 -13.53622 33.51155 8527 ft 159 kts 314°
2026-04-22 21:26 -13.52889 33.50305 8527 ft 159 kts 314°
2026-04-22 21:27 -13.52159 33.49458 8529 ft 159 kts 314°
2026-04-22 21:27 -13.51422 33.48603 8529 ft 159 kts 314°
2026-04-22 21:27 -13.50688 33.47749 8530 ft 160 kts 314°
2026-04-22 21:27 -13.49952 33.46892 8531 ft 160 kts 314°
2026-04-22 21:28 -13.49213 33.46031 8533 ft 160 kts 314°
2026-04-22 21:28 -13.48482 33.45178 8533 ft 160 kts 314°
2026-04-22 21:28 -13.47748 33.44320 8529 ft 159 kts 314°
2026-04-22 21:28 -13.47019 33.43466 8529 ft 159 kts 314°
2026-04-22 21:29 -13.46293 33.42615 8530 ft 159 kts 314°
2026-04-22 21:29 -13.45565 33.41760 8526 ft 159 kts 313°
2026-04-22 21:29 -13.44832 33.40899 8534 ft 160 kts 313°
2026-04-22 21:29 -13.44096 33.40035 8533 ft 161 kts 313°
2026-04-22 21:30 -13.43363 33.39174 8534 ft 160 kts 313°
2026-04-22 21:30 -13.42637 33.38313 8535 ft 159 kts 313°
2026-04-22 21:30 -13.41923 33.37466 8537 ft 159 kts 313°
2026-04-22 21:30 -13.41186 33.36598 8535 ft 162 kts 313°
2026-04-22 21:31 -13.40447 33.35727 8528 ft 161 kts 313°
2026-04-22 21:31 -13.39710 33.34856 8531 ft 161 kts 313°
2026-04-22 21:31 -13.38983 33.33990 8529 ft 159 kts 313°
2026-04-22 21:31 -13.38249 33.33121 8520 ft 161 kts 313°
2026-04-22 21:32 -13.37524 33.32258 8530 ft 161 kts 313°
2026-04-22 21:32 -13.36795 33.31397 8523 ft 158 kts 313°
2026-04-22 21:32 -13.36075 33.30538 8531 ft 160 kts 313°
2026-04-22 21:32 -13.35354 33.29676 8524 ft 161 kts 313°
2026-04-22 21:33 -13.34629 33.28812 8535 ft 160 kts 313°
2026-04-22 21:33 -13.33896 33.27936 8528 ft 162 kts 313°
2026-04-22 21:33 -13.33164 33.27060 8536 ft 161 kts 313°
2026-04-22 21:33 -13.32435 33.26192 8523 ft 158 kts 313°
2026-04-22 21:34 -13.31717 33.25333 8525 ft 159 kts 313°
2026-04-22 21:34 -13.30996 33.24469 8519 ft 159 kts 313°
2026-04-22 21:34 -13.30277 33.23606 8531 ft 160 kts 313°
2026-04-22 21:34 -13.29553 33.22733 8526 ft 161 kts 313°
2026-04-22 21:35 -13.28827 33.21859 8533 ft 162 kts 313°
2026-04-22 21:35 -13.28100 33.20983 8539 ft 161 kts 312°
2026-04-22 21:35 -13.27376 33.20114 8529 ft 160 kts 313°
2026-04-22 21:35 -13.26648 33.19280 8529 ft 159 kts 319°
2026-04-22 21:36 -13.25834 33.18521 8518 ft 158 kts 320°
2026-04-22 21:36 -13.25020 33.17767 8534 ft 158 kts 321°
2026-04-22 21:36 -13.24133 33.17139 8529 ft 155 kts 333°
2026-04-22 21:36 -13.23202 33.16569 8528 ft 155 kts 332°
2026-04-22 21:37 -13.22279 33.16000 8485 ft 159 kts 333°
2026-04-22 21:37 -13.21336 33.15421 8357 ft 158 kts 333°
2026-04-22 21:37 -13.20411 33.14854 8224 ft 154 kts 333°
2026-04-22 21:37 -13.19497 33.14291 8086 ft 151 kts 333°
2026-04-22 21:38 -13.18605 33.13738 7962 ft 150 kts 333°
2026-04-22 21:38 -13.17710 33.13181 7827 ft 150 kts 332°
2026-04-22 21:38 -13.16818 33.12626 7701 ft 150 kts 332°
2026-04-22 21:38 -13.15929 33.12073 7569 ft 148 kts 332°
2026-04-22 21:39 -13.15059 33.11527 7450 ft 148 kts 332°
2026-04-22 21:39 -13.14180 33.10975 7326 ft 149 kts 332°
2026-04-22 21:39 -13.13293 33.10419 7208 ft 151 kts 332°
2026-04-22 21:39 -13.12395 33.09855 7085 ft 149 kts 332°
2026-04-22 21:40 -13.11498 33.09292 6967 ft 152 kts 332°
2026-04-22 21:40 -13.10613 33.08734 6845 ft 151 kts 332°
2026-04-22 21:40 -13.09711 33.08170 6705 ft 149 kts 332°
2026-04-22 21:40 -13.08829 33.07617 6594 ft 151 kts 332°
2026-04-22 21:41 -13.07932 33.07051 6469 ft 154 kts 332°
2026-04-22 21:41 -13.07038 33.06490 6342 ft 147 kts 332°
2026-04-22 21:41 -13.06174 33.05946 6200 ft 144 kts 332°
2026-04-22 21:41 -13.05311 33.05398 6079 ft 149 kts 331°
2026-04-22 21:42 -13.04422 33.04841 5971 ft 152 kts 330°
2026-04-22 21:42 -13.03543 33.04295 5817 ft 143 kts 332°
2026-04-22 21:42 -13.02700 33.03760 5686 ft 144 kts 332°
2026-04-22 21:42 -13.01863 33.03230 5565 ft 145 kts 332°
2026-04-22 21:43 -13.01005 33.02688 5518 ft 136 kts 333°
2026-04-22 21:43 -13.00449 33.02977 4981 ft 128 kts 83°
2026-04-22 21:43 -13.00512 33.03751 5021 ft 111 kts 130°
2026-04-22 21:43 -13.01254 33.03902 4981 ft 116 kts 184°
2026-04-22 21:44 -13.02042 33.03717 5019 ft 117 kts 189°
2026-04-22 21:44 -13.02823 33.03493 5009 ft 119 kts 188°
2026-04-22 21:44 -13.03621 33.03437 5036 ft 115 kts 163°
2026-04-22 21:44 -13.04282 33.03836 5218 ft 105 kts 128°
2026-04-22 21:45 -13.04527 33.04546 5302 ft 108 kts 94°
2026-04-22 21:45 -13.04303 33.05263 5318 ft 116 kts 53°
2026-04-22 21:45 -13.04088 33.05969 5150 ft 109 kts 103°
2026-04-22 21:45 -13.03953 33.06738 5145 ft 108 kts 77°
2026-04-22 21:46 -13.03820 33.07492 5068 ft 109 kts 86°
2026-04-22 21:46 -13.03816 33.08265 4991 ft 106 kts 92°
2026-04-22 21:46 -13.03855 33.08996 4860 ft 104 kts 94°
2026-04-22 21:46 -13.03869 33.09746 4659 ft 106 kts 90°
2026-04-22 21:47 -13.03817 33.10491 4504 ft 105 kts 86°
2026-04-22 21:47 -13.03763 33.11233 4322 ft 102 kts 97°
2026-04-22 21:47 -13.03863 33.11959 4209 ft 104 kts 97°
2026-04-22 21:47 -13.03948 33.12639 4267 ft 91 kts 97°
2026-04-22 21:48 -13.04029 33.13286 4232 ft 91 kts 98°
2026-04-22 21:48 -13.03948 33.13866 3976 ft 83 kts 46°
2026-04-22 21:48 -13.03476 33.14170 3862 ft 79 kts 39°
2026-04-22 21:48 -13.03427 33.14653 3760 ft 83 kts 134°
2026-04-22 21:49 -13.04004 33.14745 3660 ft 90 kts 176°
2026-04-22 21:49 -13.04599 33.14758 3483 ft 81 kts 173°
2026-04-22 21:49 -13.05158 33.14796 3359 ft 79 kts 170°
2026-04-22 21:49 -13.05641 33.14841 3370 ft 58 kts 182°
2026-04-22 21:50 -13.05803 33.14741 3373 ft 30 kts 260°
2026-04-22 21:50 -13.05800 33.14550 3368 ft 1 kts 173°